Weather History for Yankton, SD

Change the Weather History Date:

Thursday, December 4, 2014

  Actual Average Record
Temperature  
Mean Temperature 32 °F -  
Max Temperature 41 °F 34 °F 58 °F (1956)
Min Temperature 24 °F 16 °F -3 °F (1978)
Degree Days  
Heating Degree Days 32    
Moisture  
Dew Point 16 °F    
Average Humidity 56    
Maximum Humidity 74    
Minimum Humidity 39    
Precipitation  
Precipitation 0.00 in - - ()
Sea Level Pressure  
Sea Level Pressure 30.07 in    
Wind  
Wind Speed 13 mph (SE)    
Max Wind Speed 20 mph    
Max Gust Speed 25 mph    
Visibility 10 miles    
Events      
Averages and records for this station are not official NWS values.
T = Trace of Precipitation, MM = Missing Value Source: NWS Daily Summary

Daily Weather History Graph

Daily Weather History Graph

Search for Another Location

Airport:

Trip Planner

Search our weather history database for the weather conditions in past years. The results will help you decide how hot, cold, wet, or windy it might be!

Date:

Astronomy

Dec. 04, 2014 Rise Set
Actual Time 7:43 AM CST 4:55 PM CST
Civil Twilight 7:12 AM CST 5:27 PM CST
Nautical Twilight 6:36 AM CST 6:02 PM CST
Astronomical Twilight 6:02 AM CST 6:36 PM CST
Moon 4:01 PM CST (12/4) 5:33 AM CST (12/4)
Length of Visible Light 10h 15m
Length of Day
9h 11m
Waxing Gibbous, 97% of the Moon is Illuminated
Dec 4
Waxing Gibbous
Dec 6
Full
Dec 14
Last Quarter
Dec 21
New
Dec 28
First Quarter

Hourly Weather History & Observations

Time (CST) Temp. Windchill Dew Point Humidity Pressure Visibility Wind Dir Wind Speed Gust Speed Precip Events Conditions
12:15 AM 30.2 °F 19.3 °F 14.0 °F 51% 30.21 in 10.0 mi SE 15.0 mph - N/A   Mostly Cloudy
12:35 AM 30.2 °F 18.1 °F 12.2 °F 47% 30.20 in 10.0 mi SSE 18.4 mph 21.9 mph N/A   Mostly Cloudy
12:55 AM 30.2 °F 19.8 °F 14.0 °F 51% 30.20 in 10.0 mi SE 13.8 mph 23.0 mph N/A   Mostly Cloudy
1:15 AM 30.2 °F 18.5 °F 12.2 °F 47% 30.19 in 10.0 mi SE 17.3 mph 21.9 mph N/A   Scattered Clouds
1:35 AM 30.2 °F 19.3 °F 12.2 °F 47% 30.19 in 10.0 mi SE 15.0 mph 21.9 mph N/A   Clear
1:55 AM 28.4 °F 17.5 °F 12.2 °F 51% 30.18 in 10.0 mi SE 13.8 mph 21.9 mph N/A   Clear
2:15 AM 28.4 °F 17.5 °F 12.2 °F 51% 30.17 in 10.0 mi SE 13.8 mph 18.4 mph N/A   Clear
2:35 AM 26.6 °F 15.7 °F 12.2 °F 55% 30.17 in 10.0 mi SE 12.7 mph - N/A   Clear
2:55 AM 26.6 °F 15.7 °F 12.2 °F 55% 30.18 in 10.0 mi SE 12.7 mph 17.3 mph N/A   Clear
3:15 AM 26.6 °F 16.8 °F 12.2 °F 55% 30.18 in 10.0 mi SE 10.4 mph - N/A   Clear
3:35 AM 26.6 °F 16.8 °F 12.2 °F 55% 30.17 in 10.0 mi SSE 10.4 mph - N/A   Clear
3:55 AM 26.6 °F 17.5 °F 12.2 °F 55% 30.16 in 10.0 mi SSE 9.2 mph - N/A   Clear
4:15 AM 26.6 °F 16.8 °F 12.2 °F 55% 30.15 in 10.0 mi SSE 10.4 mph - N/A   Clear
4:35 AM 24.8 °F 14.6 °F 12.2 °F 59% 30.15 in 10.0 mi SSE 10.4 mph - N/A   Clear
4:55 AM 24.8 °F 13.4 °F 12.2 °F 59% 30.14 in 10.0 mi SSE 12.7 mph - N/A   Clear
5:15 AM 24.8 °F 12.4 °F 12.2 °F 59% 30.13 in 10.0 mi SSE 15.0 mph - N/A   Clear
5:35 AM 24.8 °F 12.4 °F 12.2 °F 59% 30.13 in 10.0 mi SSE 15.0 mph - N/A   Clear
5:55 AM 24.8 °F 13.4 °F 12.2 °F 59% 30.13 in 10.0 mi SSE 12.7 mph - N/A   Clear
6:15 AM 24.8 °F 12.4 °F 12.2 °F 59% 30.13 in 10.0 mi SSE 15.0 mph - N/A   Clear
6:35 AM 24.8 °F 12.4 °F 12.2 °F 59% 30.12 in 10.0 mi SSE 15.0 mph 20.7 mph N/A   Clear
6:55 AM 24.8 °F 12.9 °F 12.2 °F 59% 30.12 in 10.0 mi SSE 13.8 mph 19.6 mph N/A   Clear
7:15 AM 24.8 °F 13.4 °F 12.2 °F 59% 30.12 in 10.0 mi SSE 12.7 mph - N/A   Clear
7:35 AM 24.8 °F 14.6 °F 12.2 °F 59% 30.13 in 10.0 mi SSE 10.4 mph - N/A   Clear
7:55 AM 24.8 °F 14.6 °F 12.2 °F 59% 30.13 in 10.0 mi SE 10.4 mph - N/A   Clear
8:15 AM 24.8 °F 15.3 °F 12.2 °F 59% 30.13 in 10.0 mi SE 9.2 mph - N/A   Clear
8:35 AM 24.8 °F 14.6 °F 14.0 °F 64% 30.12 in 10.0 mi SE 10.4 mph - N/A   Clear
8:55 AM 26.6 °F 16.8 °F 14.0 °F 59% 30.12 in 10.0 mi SE 10.4 mph - N/A   Clear
9:15 AM 26.6 °F 15.2 °F 15.8 °F 64% 30.12 in 10.0 mi SE 13.8 mph 18.4 mph N/A   Clear
9:35 AM 28.4 °F 18.5 °F 15.8 °F 59% 30.12 in 10.0 mi SE 11.5 mph - N/A   Clear
9:55 AM 30.2 °F 20.2 °F 15.8 °F 55% 30.12 in 10.0 mi SSE 12.7 mph - N/A   Clear
10:15 AM 30.2 °F 19.3 °F 15.8 °F 55% 30.12 in 10.0 mi SSE 15.0 mph - N/A   Clear
10:35 AM 33.8 °F 24.3 °F 15.8 °F 48% 30.11 in 10.0 mi SSE 13.8 mph - N/A   Clear
10:55 AM 33.8 °F 24.3 °F 17.6 °F 52% 30.10 in 10.0 mi SSE 13.8 mph - N/A   Clear
11:15 AM 35.6 °F 26.2 °F 15.8 °F 44% 30.09 in 10.0 mi SSE 15.0 mph 20.7 mph N/A   Clear
11:35 AM 37.4 °F 27.5 °F 17.6 °F 45% 30.07 in 10.0 mi SSE 18.4 mph - N/A   Clear
11:55 AM 37.4 °F 27.8 °F 17.6 °F 45% 30.06 in 10.0 mi SSE 17.3 mph - N/A   Clear
12:15 PM 39.2 °F 29.6 °F 17.6 °F 42% 30.04 in 10.0 mi SSE 19.6 mph 23.0 mph N/A   Clear
12:35 PM 39.2 °F 30.5 °F 17.6 °F 42% 30.03 in 10.0 mi SSE 16.1 mph 23.0 mph N/A   Clear
12:55 PM 41.0 °F 32.5 °F 17.6 °F 39% 30.02 in 10.0 mi South 17.3 mph 24.2 mph N/A   Clear
1:15 PM 41.0 °F 32.5 °F 17.6 °F 39% 30.00 in 10.0 mi South 17.3 mph 25.3 mph N/A   Clear
1:35 PM 41.0 °F 33.9 °F 19.4 °F 42% 30.00 in 10.0 mi South 12.7 mph - N/A   Clear
1:55 PM 41.0 °F 32.2 °F 19.4 °F 42% 29.99 in 10.0 mi South 18.4 mph 21.9 mph N/A   Clear
2:15 PM 41.0 °F 33.5 °F 19.4 °F 42% 29.98 in 10.0 mi South 13.8 mph 21.9 mph N/A   Clear
2:35 PM 39.2 °F 30.5 °F 21.2 °F 49% 29.98 in 10.0 mi SSE 16.1 mph - N/A   Clear
2:55 PM 39.2 °F 31.2 °F 21.2 °F 49% 29.98 in 10.0 mi SSE 13.8 mph - N/A   Clear
3:15 PM 39.2 °F 31.6 °F 19.4 °F 45% 29.98 in 10.0 mi SSE 12.7 mph - N/A   Clear
3:35 PM 39.2 °F 31.2 °F 21.2 °F 49% 29.97 in 10.0 mi South 13.8 mph - N/A   Clear
3:55 PM 39.2 °F 31.6 °F 21.2 °F 49% 29.98 in 10.0 mi South 12.7 mph - N/A   Clear
4:15 PM 39.2 °F 31.6 °F 21.2 °F 49% 29.98 in 10.0 mi South 12.7 mph - N/A   Clear
4:35 PM 37.4 °F 29.8 °F 19.4 °F 48% 29.98 in 10.0 mi SSE 11.5 mph - N/A   Clear
4:55 PM 35.6 °F 28.0 °F 19.4 °F 52% 29.98 in 10.0 mi SSE 10.4 mph - N/A   Clear
5:15 PM 35.6 °F 28.6 °F 19.4 °F 52% 29.98 in 10.0 mi SSE 9.2 mph - N/A   Clear
5:35 PM 33.8 °F 27.0 °F 21.2 °F 60% 29.99 in 10.0 mi SSE 8.1 mph - N/A   Clear
5:55 PM 32.0 °F 24.8 °F 19.4 °F 60% 29.99 in 10.0 mi SE 8.1 mph - N/A   Clear
6:15 PM 30.2 °F 24.3 °F 17.6 °F 60% 30.00 in 7.0 mi ESE 5.8 mph - N/A   Clear
6:35 PM 30.2 °F 23.4 °F 19.4 °F 64% 30.00 in 10.0 mi ESE 6.9 mph - N/A   Clear
6:55 PM 30.2 °F 25.4 °F 19.4 °F 64% 30.00 in 10.0 mi ESE 4.6 mph - N/A   Clear
7:15 PM 30.2 °F 26.7 °F 17.6 °F 60% 30.00 in 10.0 mi ESE 3.5 mph - N/A   Clear
7:35 PM 28.4 °F 22.2 °F 19.4 °F 69% 29.99 in 10.0 mi ESE 5.8 mph - N/A   Clear
7:55 PM 28.4 °F 22.2 °F 19.4 °F 69% 29.99 in 10.0 mi ESE 5.8 mph - N/A   Clear
8:15 PM 28.4 °F 21.2 °F 19.4 °F 69% 29.99 in 10.0 mi East 6.9 mph - N/A   Clear
8:35 PM 28.4 °F 21.2 °F 19.4 °F 69% 29.99 in 10.0 mi East 6.9 mph - N/A   Clear
8:55 PM 28.4 °F 21.2 °F 19.4 °F 69% 29.99 in 10.0 mi East 6.9 mph - N/A   Clear
9:15 PM 28.4 °F 21.2 °F 19.4 °F 69% 29.99 in 10.0 mi East 6.9 mph - N/A   Clear
9:35 PM 28.4 °F 21.2 °F 19.4 °F 69% 29.98 in 10.0 mi ESE 6.9 mph - N/A   Clear
9:55 PM 28.4 °F 20.4 °F 19.4 °F 69% 29.98 in 10.0 mi ESE 8.1 mph - N/A   Clear
10:15 PM 28.4 °F 20.4 °F 19.4 °F 69% 29.98 in 10.0 mi ESE 8.1 mph - N/A   Clear
10:35 PM 28.4 °F 21.2 °F 19.4 °F 69% 29.99 in 10.0 mi ESE 6.9 mph - N/A   Clear
10:55 PM 28.4 °F 20.4 °F 21.2 °F 74% 29.99 in 10.0 mi ESE 8.1 mph - N/A   Clear
11:35 PM 28.4 °F 20.4 °F 21.2 °F 74% 29.98 in 10.0 mi East 8.1 mph - N/A   Clear
11:55 PM 28.4 °F 21.2 °F 19.4 °F 69% 29.98 in 10.0 mi East 6.9 mph - N/A   Clear